When you browse on this site, cookies collect data to enhance your experience and personalize the content and advertising you see.
Visit our Privacy Policy to learn more. By continuing to use the site, you agree to this use of cookies and data.
  • In Hungary
  • List of Countries
  • For 7 days
  • Water Temperature
  • Weather Map
  • News
  • Weather Widgets
  • user-avatar
    Login

    Hourly Weather Leicester

    Today, 1 June, Monday

    Time Temperature Precipitation Wind Pressure Humidity
    00:00 +8°C° 0 mm 3 mps 763 mmHg 87%
    01:00 +8°C° 0 mm 3 mps 762 mmHg 89%
    02:00 +8°C° 0 mm 3 mps 762 mmHg 92%
    03:00 +8°C° 0 mm 3 mps 762 mmHg 94%
    04:00 +9°C° 0 mm 3 mps 762 mmHg 92%
    05:00 +10°C° 0 mm 3 mps 762 mmHg 91%
    06:00 +11°C° 0 mm 4 mps 762 mmHg 90%
    07:00 +13°C° 0 mm 4 mps 762 mmHg 85%
    08:00 +15°C° 0 mm 4 mps 762 mmHg 80%
    09:00 +17°C° 0 mm 4 mps 762 mmHg 75%
    10:00 +18°C° 0 mm 4 mps 762 mmHg 72%
    11:00 +19°C° 0 mm 4 mps 762 mmHg 70%
    12:00 +20°C° 0 mm 4 mps 762 mmHg 67%
    13:00 +20°C° 0 mm 4 mps 762 mmHg 68%
    14:00 +20°C° 0 mm 4 mps 762 mmHg 69%
    15:00 +20°C° 0 mm 4 mps 762 mmHg 69%
    16:00 +19°C° 0 mm 4 mps 761 mmHg 71%
    17:00 +19°C° 0 mm 4 mps 761 mmHg 74%
    18:00 +17°C° 0 mm 5 mps 761 mmHg 76%
    19:00 +15°C° 0 mm 4 mps 761 mmHg 79%
    20:00 +12°C° 0 mm 4 mps 762 mmHg 83%
    21:00 +10°C° 0 mm 3 mps 762 mmHg 86%
    22:00 +10°C° 0 mm 3 mps 762 mmHg 89%
    23:00 +9°C° 0 mm 3 mps 762 mmHg 91%

    Tomorrow, 2 June, Tuesday

    Time Temperature Precipitation Wind Pressure Humidity
    00:00 +8°C° 0 mm 2 mps 762 mmHg 93%
    01:00 +8°C° 0 mm 2 mps 761 mmHg 94%
    02:00 +8°C° 0 mm 2 mps 761 mmHg 94%
    03:00 +8°C° 0 mm 2 mps 761 mmHg 94%
    04:00 +9°C° 0 mm 2 mps 761 mmHg 93%
    05:00 +10°C° 0 mm 2 mps 761 mmHg 91%
    06:00 +10°C° 0 mm 2 mps 761 mmHg 89%
    07:00 +13°C° 0 mm 2 mps 760 mmHg 82%
    08:00 +14°C° 0 mm 3 mps 760 mmHg 75%
    09:00 +17°C° 0 mm 3 mps 760 mmHg 69%
    10:00 +17°C° 0 mm 3 mps 759 mmHg 65%
    11:00 +18°C° 0 mm 2 mps 759 mmHg 61%
    12:00 +19°C° 0 mm 2 mps 759 mmHg 57%
    13:00 +20°C° 0 mm 2 mps 758 mmHg 56%
    14:00 +20°C° 0 mm 2 mps 758 mmHg 54%
    15:00 +21°C° 0 mm 2 mps 757 mmHg 53%
    16:00 +21°C° 0 mm 1 mps 757 mmHg 57%
    17:00 +21°C° 0 mm 1 mps 756 mmHg 62%
    18:00 +21°C° 0 mm 1 mps 756 mmHg 66%
    19:00 +19°C° 0 mm 1 mps 755 mmHg 71%
    20:00 +16°C° 0 mm 1 mps 755 mmHg 75%
    21:00 +14°C° 0 mm 1 mps 755 mmHg 80%
    22:00 +13°C° 0 mm 1 mps 755 mmHg 81%
    23:00 +13°C° 0 mm 1 mps 754 mmHg 83%

    Day after tomorrow, 3 June, Wednesday

    Time Temperature Precipitation Wind Pressure Humidity
    00:00 +12°C° 0 mm 1 mps 754 mmHg 84%
    01:00 +12°C° 0 mm 1 mps 753 mmHg 85%
    02:00 +12°C° 0 mm 1 mps 753 mmHg 86%
    03:00 +12°C° 0 mm 1 mps 752 mmHg 87%
    04:00 +12°C° 0 mm 2 mps 752 mmHg 86%
    05:00 +13°C° 0 mm 2 mps 752 mmHg 84%
    06:00 +13°C° 0 mm 2 mps 752 mmHg 83%
    07:00 +12°C° 0 mm 3 mps 752 mmHg 83%
    08:00 +13°C° 0 mm 4 mps 752 mmHg 82%
    09:00 +13°C° 0 mm 4 mps 752 mmHg 82%
    10:00 +14°C° 0 mm 5 mps 752 mmHg 79%
    11:00 +15°C° 0 mm 5 mps 751 mmHg 76%
    12:00 +15°C° 0 mm 5 mps 751 mmHg 74%
    13:00 +16°C° 0.1 mm 5 mps 751 mmHg 72%
    14:00 +16°C° 0.1 mm 6 mps 751 mmHg 70%
    15:00 +16°C° 0.1 mm 6 mps 751 mmHg 69%
    16:00 +16°C° 0 mm 6 mps 751 mmHg 70%
    17:00 +15°C° 0 mm 6 mps 751 mmHg 71%
    18:00 +14°C° 0 mm 5 mps 751 mmHg 72%
    19:00 +13°C° 0 mm 5 mps 751 mmHg 77%
    20:00 +12°C° 0 mm 5 mps 751 mmHg 83%
    21:00 +10°C° 0 mm 4 mps 751 mmHg 88%
    22:00 +10°C° 0 mm 4 mps 751 mmHg 89%
    23:00 +8°C° 0 mm 4 mps 751 mmHg 91%

    4 June, Thursday

    Time Temperature Precipitation Wind Pressure Humidity
    00:00 +9°C° 0 mm 3 mps 751 mmHg 93%
    01:00 +8°C° 0 mm 3 mps 751 mmHg 91%
    02:00 +8°C° 0 mm 3 mps 750 mmHg 90%
    03:00 +8°C° 0 mm 3 mps 750 mmHg 89%
    04:00 +8°C° 0 mm 3 mps 750 mmHg 87%
    05:00 +9°C° 0 mm 3 mps 750 mmHg 84%
    06:00 +9°C° 0 mm 3 mps 749 mmHg 82%
    07:00 +10°C° 0 mm 3 mps 749 mmHg 76%
    08:00 +11°C° 0 mm 3 mps 749 mmHg 70%
    09:00 +13°C° 0 mm 3 mps 749 mmHg 64%
    10:00 +13°C° 0 mm 3 mps 749 mmHg 65%
    11:00 +14°C° 0 mm 4 mps 749 mmHg 66%
    12:00 +14°C° 0 mm 4 mps 748 mmHg 66%
    13:00 +14°C° 0 mm 5 mps 748 mmHg 65%
    14:00 +14°C° 0 mm 5 mps 748 mmHg 64%
    15:00 +15°C° 0 mm 6 mps 747 mmHg 63%
    16:00 +14°C° 0 mm 6 mps 747 mmHg 65%
    17:00 +14°C° 0 mm 5 mps 747 mmHg 67%
    18:00 +13°C° 0 mm 5 mps 747 mmHg 69%
    19:00 +12°C° 0 mm 4 mps 746 mmHg 72%
    20:00 +11°C° 0 mm 4 mps 746 mmHg 75%
    21:00 +10°C° 0 mm 3 mps 746 mmHg 77%
    22:00 +10°C° 0 mm 4 mps 746 mmHg 79%
    23:00 +8°C° 0 mm 4 mps 745 mmHg 80%

    5 June, Friday

    Time Temperature Precipitation Wind Pressure Humidity
    00:00 +8°C° 0 mm 4 mps 745 mmHg 82%
    01:00 +9°C° 0 mm 5 mps 744 mmHg 81%
    02:00 +9°C° 0 mm 6 mps 743 mmHg 81%
    03:00 +9°C° 0 mm 7 mps 743 mmHg 81%
    04:00 +10°C° 0 mm 7 mps 742 mmHg 80%
    05:00 +10°C° 0 mm 7 mps 741 mmHg 79%
    06:00 +11°C° 0 mm 7 mps 741 mmHg 79%
    07:00 +11°C° 0.2 mm 8 mps 740 mmHg 79%
    08:00 +11°C° 0.2 mm 8 mps 740 mmHg 79%
    09:00 +11°C° 0.2 mm 8 mps 740 mmHg 79%
    10:00 +12°C° 0.1 mm 8 mps 740 mmHg 73%
    11:00 +13°C° 0.1 mm 9 mps 740 mmHg 67%
    12:00 +14°C° 0.1 mm 10 mps 740 mmHg 60%
    13:00 +13°C° 0.1 mm 9 mps 741 mmHg 60%
    14:00 +13°C° 0.1 mm 9 mps 741 mmHg 59%
    15:00 +13°C° 0.1 mm 8 mps 741 mmHg 59%
    16:00 +13°C° 0 mm 8 mps 741 mmHg 60%
    17:00 +12°C° 0 mm 7 mps 742 mmHg 61%
    18:00 +13°C° 0 mm 6 mps 742 mmHg 62%
    19:00 +10°C° 0 mm 6 mps 742 mmHg 63%
    20:00 +9°C° 0 mm 5 mps 743 mmHg 63%
    21:00 +7°C° 0 mm 5 mps 743 mmHg 63%
    22:00 +7°C° 0 mm 5 mps 743 mmHg 66%
    23:00 +7°C° 0 mm 5 mps 744 mmHg 68%

    6 June, Saturday

    Time Temperature Precipitation Wind Pressure Humidity
    00:00 +6°C° 0 mm 5 mps 744 mmHg 71%
    01:00 +6°C° 0 mm 5 mps 744 mmHg 74%
    02:00 +5°C° 0 mm 5 mps 744 mmHg 76%
    03:00 +5°C° 0 mm 5 mps 745 mmHg 79%
    04:00 +4°C° 0 mm 6 mps 745 mmHg 77%
    05:00 +5°C° 0 mm 6 mps 745 mmHg 75%
    06:00 +5°C° 0 mm 7 mps 746 mmHg 73%
    07:00 +6°C° 0.1 mm 7 mps 746 mmHg 70%
    08:00 +7°C° 0.1 mm 8 mps 746 mmHg 68%
    09:00 +9°C° 0.1 mm 8 mps 746 mmHg 65%
    10:00 +10°C° 0.2 mm 8 mps 746 mmHg 63%
    11:00 +10°C° 0.2 mm 9 mps 746 mmHg 61%
    12:00 +11°C° 0.2 mm 9 mps 746 mmHg 59%
    13:00 +11°C° 0.2 mm 9 mps 746 mmHg 60%
    14:00 +11°C° 0.2 mm 9 mps 746 mmHg 61%
    15:00 +11°C° 0.2 mm 8 mps 746 mmHg 62%
    16:00 +11°C° 0.1 mm 8 mps 746 mmHg 64%
    17:00 +11°C° 0.1 mm 7 mps 746 mmHg 65%
    18:00 +11°C° 0.1 mm 6 mps 746 mmHg 67%
    19:00 +10°C° 0 mm 6 mps 747 mmHg 70%
    20:00 +9°C° 0 mm 6 mps 747 mmHg 74%
    21:00 +8°C° 0 mm 6 mps 747 mmHg 77%
    22:00 +7°C° 0 mm 6 mps 747 mmHg 76%
    23:00 +7°C° 0 mm 6 mps 747 mmHg 75%
    Show more